Regional Weather Roundup
Issued by NWS

Home | Current Version | Previous Version | Text Only | Print | Product List | Glossary On
Versions: 1 2 3 4 5 6 7 8 9 10 11 12 13 14 15 16 17 18 19 20 21 22 23 24 25 26 27 28 29 30 31 32 33 34 35 36 37 38 39 40 41 42 43 44 45 46 47 48 49 50
000
ASUS44 KBMX 231310
RWRAL

ALABAMA REGIONAL WEATHER ROUNDUP
NATIONAL WEATHER SERVICE BIRMINGHAM AL
700 AM CST SUN NOV 23 2014

NOTE: "FAIR" INDICATES FEW OR NO CLOUDS BELOW 12,000 FEET
WITH NO SIGNIFICANT WEATHER AND/OR OBSTRUCTIONS TO VISIBILITY.

THE REMARK "TC" DENOTES TEMPERATURE IN DEGREES CELSIUS.

ALZ001>011-014-016>018-020-231400-
NORTH ALABAMA

CITY           SKY/WX    TMP DP  RH WIND       PRES   REMARKS
MUSCLE SHOALS  CLOUDY    56  51  84 SE10      29.87F
HUNTSVILLE     CLOUDY    54  49  83 SE16G23   29.89F
DECATUR        CLOUDY    53  49  86 SE9       29.89F
HALEYVILLE     CLOUDY    54  54 100 E12G21    29.86F FOG
GADSDEN        CLOUDY    48  45  87 E10       29.93F
$$

ALZ012-013-022-023-030>036-040>044-231400-
WEST CENTRAL ALABAMA

CITY           SKY/WX    TMP DP  RH WIND       PRES   REMARKS
TUSCALOOSA     CLOUDY    60  58  92 E7        29.83F
$$

ALZ015-024>027-033>036-040>044-231400-
CENTRAL ALABAMA

CITY           SKY/WX    TMP DP  RH WIND       PRES   REMARKS
BIRMINGHAM     CLOUDY    56  54  93 E13G20    29.89S FOG
MONTGOMERY     CLOUDY    61  59  93 E12       29.87F
SHELBY CO ARPT LGT RAIN  59  57  93 SE9       29.87F FOG
MAXWELL AFB    CLOUDY    60  60  97 E8        29.87F
GREENVILLE     CLOUDY    62  61  96 SE7G16    29.84F FOG
$$

ALZ019-021-028-029-037-038-045>048-231400-
EAST CENTRAL ALABAMA

CITY           SKY/WX    TMP DP  RH WIND       PRES   REMARKS
ANNISTON       LGT RAIN  54  52  93 E10       29.93F FOG
ALEXANDER CITY LGT RAIN  59  55  86 E6        29.92S
AUBURN         CLOUDY    55  54  94 E12G21    29.95S
$$

ALZ051>064-231400-
SOUTHWEST ALABAMA

CITY           SKY/WX    TMP DP  RH WIND       PRES   REMARKS
MOBILE         FOG       67  67 100 SE9       29.77S VSB 1
BROOKLEY FIELD LGT RAIN  68  67  96 SE12      29.78S FOG
EVERGREEN      CLOUDY    66  63  90 SE15      29.82F
$$

ALZ049-050-065>069-231400-
SOUTHEAST ALABAMA

CITY           SKY/WX    TMP DP  RH WIND       PRES   REMARKS
DOTHAN         CLOUDY    62  61  96 E9        29.92F FOG
OZARK          DRIZZLE   63  63 100 E9        29.88F FOG
TROY           CLOUDY    63  61  93 SE12      29.88F
EUFAULA        CLOUDY    61  32  33 E8        29.93R HAZE
$$


USA.gov is the U.S. government's official web portal to all federal, state and local government web resources and services.